| time (UTC) | temp F | wind direction | speed knots | gust knots | rain 1hr in | rain 24hr in | rain mn in | humidity % | barometer mb |
| 20260507180105 | 69 | 118 | 2.6 | 9.6 | 0.00 | 0.00 | 0.00 | 42 | 1015.3 |
| 20260507174559 | 69 | 129 | 1.7 | 11.3 | 0.00 | 0.00 | 0.00 | 43 | 1015.4 |
| 20260507173058 | 68 | 207 | 1.7 | 9.6 | 0.00 | 0.00 | 0.00 | 45 | 1015.8 |
| 20260507171604 | 67 | 137 | 1.7 | 10.4 | 0.00 | 0.00 | 0.00 | 47 | 1015.9 |
| 20260507170100 | 66 | 319 | 1.7 | 9.6 | 0.00 | 0.00 | 0.00 | 45 | 1016.3 |
| 20260507164559 | 65 | 174 | 2.6 | 8.7 | 0.00 | 0.00 | 0.00 | 46 | 1016.6 |
| 20260507163105 | 64 | 125 | 1.7 | 8.7 | 0.00 | 0.00 | 0.00 | 49 | 1017.0 |
| 20260507161605 | 63 | 129 | 1.7 | 9.6 | 0.00 | 0.00 | 0.00 | 50 | 1016.9 |
| 20260507160103 | 61 | 133 | 0.9 | 7.0 | 0.00 | 0.00 | 0.00 | 53 | 1017.1 |
| 20260507154559 | 60 | 238 | 1.7 | 9.6 | 0.00 | 0.00 | 0.00 | 56 | 1017.1 |
| 20260507153100 | 58 | 146 | 0.9 | 9.6 | 0.00 | 0.00 | 0.00 | 58 | 1017.2 |
| 20260507151559 | 57 | 119 | 1.7 | 6.1 | 0.00 | 0.00 | 0.00 | 62 | 1017.4 |
| 20260507150100 | 55 | 124 | 1.7 | 7.0 | 0.00 | 0.00 | 0.00 | 63 | 1017.5 |
| 20260507144559 | 54 | 287 | 1.7 | 8.7 | 0.00 | 0.00 | 0.00 | 66 | 1017.7 |
| 20260507143102 | 53 | 164 | 0.9 | 5.2 | 0.00 | 0.00 | 0.00 | 71 | 1017.8 |
| 20260507141602 | 52 | 186 | 1.7 | 6.1 | 0.00 | 0.00 | 0.00 | 72 | 1018.1 |
| 20260507140121 | 51 | 248 | 0.0 | 5.2 | 0.00 | 0.00 | 0.00 | 77 | 1018.2 |
| 20260507134559 | 51 | 0 | 0.0 | 5.2 | 0.00 | 0.00 | 0.00 | 78 | 1018.2 |
| 20260507133059 | 50 | 200 | 0.9 | 3.5 | 0.00 | 0.00 | 0.00 | 80 | 1018.5 |
| 20260507131609 | 49 | 212 | 0.9 | 3.5 | 0.00 | 0.00 | 0.00 | 81 | 1018.5 |
| 20260507130112 | 47 | 203 | 0.0 | 3.5 | 0.00 | 0.00 | 0.00 | 85 | 1018.6 |
| 20260507124614 | 43 | 162 | 0.0 | 2.6 | 0.00 | 0.00 | 0.00 | 91 | 1018.5 |
| 20260507123106 | 41 | 0 | 0.0 | 2.6 | 0.00 | 0.00 | 0.00 | 92 | 1018.4 |
| 20260507121557 | 40 | 0 | 0.0 | 0.9 | 0.00 | 0.00 | 0.00 | 92 | 1018.4 |
| 20260507120059 | 40 | 0 | 0.0 | 0.0 | 0.00 | 0.00 | 0.00 | 92 | 1018.4 |
| 20260507114606 | 39 | 0 | 0.0 | 0.0 | 0.00 | 0.00 | 0.00 | 92 | 1018.3 |
| 20260507113103 | 39 | 0 | 0.0 | 0.9 | 0.00 | 0.00 | 0.00 | 91 | 1018.5 |
| 20260507111606 | 39 | 0 | 0.0 | 0.0 | 0.00 | 0.00 | 0.00 | 90 | 1018.5 |
| 20260507110110 | 40 | 0 | 0.0 | 0.9 | 0.00 | 0.00 | 0.00 | 90 | 1018.6 |
| 20260507104600 | 40 | 0 | 0.0 | 1.7 | 0.00 | 0.00 | 0.00 | 89 | 1018.5 |
| 20260507103059 | 41 | 0 | 0.0 | 0.9 | 0.00 | 0.00 | 0.00 | 89 | 1018.6 |
| 20260507101604 | 41 | 0 | 0.0 | 0.0 | 0.00 | 0.00 | 0.00 | 88 | 1018.6 |
| 20260507100059 | 42 | 0 | 0.0 | 1.7 | 0.00 | 0.00 | 0.00 | 88 | 1018.6 |
| 20260507094600 | 42 | 0 | 0.0 | 0.9 | 0.00 | 0.01 | 0.00 | 88 | 1018.8 |
| 20260507093101 | 42 | 0 | 0.0 | 0.9 | 0.00 | 0.01 | 0.00 | 87 | 1019.0 |
| 20260507091601 | 43 | 0 | 0.0 | 0.9 | 0.00 | 0.01 | 0.00 | 87 | 1019.0 |
| 20260507090100 | 43 | 0 | 0.0 | 0.9 | 0.00 | 0.01 | 0.00 | 87 | 1019.2 |
| 20260507084559 | 43 | 0 | 0.0 | 1.7 | 0.00 | 0.01 | 0.00 | 87 | 1019.2 |
| 20260507083103 | 43 | 0 | 0.0 | 1.7 | 0.00 | 0.01 | 0.00 | 86 | 1019.5 |
| 20260507081558 | 44 | 0 | 0.0 | 0.0 | 0.00 | 0.01 | 0.00 | 85 | 1019.7 |
| 20260507080134 | 44 | 0 | 0.0 | 0.9 | 0.00 | 0.01 | 0.00 | 85 | 1019.9 |
| 20260507074605 | 44 | 0 | 0.0 | 1.7 | 0.00 | 0.01 | 0.00 | 84 | 1020.0 |
| 20260507073118 | 44 | 0 | 0.0 | 0.0 | 0.00 | 0.01 | 0.00 | 83 | 1020.0 |
| 20260507071613 | 45 | 291 | 0.0 | 0.9 | 0.00 | 0.01 | 0.00 | 82 | 1019.9 |
| 20260507070057 | 45 | 0 | 0.0 | 1.7 | 0.00 | 0.01 | 0.00 | 81 | 1020.3 |
| 20260507064559 | 45 | 0 | 0.0 | 0.9 | 0.00 | 0.01 | 0.00 | 82 | 1020.3 |
| 20260507063101 | 45 | 0 | 0.0 | 0.0 | 0.00 | 0.01 | 0.00 | 83 | 1020.5 |
| 20260507061558 | 45 | 0 | 0.0 | 0.0 | 0.00 | 0.01 | 0.00 | 82 | 1020.7 |
| 20260507060103 | 46 | 0 | 0.0 | 0.0 | 0.00 | 0.01 | 0.00 | 81 | 1020.6 |
| 20260507054607 | 46 | 0 | 0.0 | 0.0 | 0.00 | 0.06 | 0.00 | 78 | 1020.5 |
| 20260507053101 | 48 | 0 | 0.0 | 0.0 | 0.00 | 0.06 | 0.00 | 76 | 1020.5 |
| 20260507051601 | 49 | 0 | 0.0 | 0.9 | 0.00 | 0.06 | 0.00 | 76 | 1020.5 |
| 20260507044618 | 48 | 0 | 0.0 | 0.9 | 0.00 | 0.09 | 0.06 | 75 | 1020.6 |
| 20260507043059 | 48 | 0 | 0.0 | 0.0 | 0.00 | 0.09 | 0.06 | 73 | 1020.5 |
| 20260507041605 | 49 | 0 | 0.0 | 0.0 | 0.00 | 0.09 | 0.06 | 73 | 1020.5 |
| 20260507040112 | 49 | 0 | 0.0 | 0.0 | 0.00 | 0.09 | 0.06 | 75 | 1020.3 |
| 20260507034605 | 49 | 0 | 0.0 | 0.0 | 0.00 | 0.09 | 0.06 | 72 | 1020.4 |
| 20260507033058 | 49 | 0 | 0.0 | 0.0 | 0.00 | 0.09 | 0.06 | 72 | 1020.6 |
| 20260507031602 | 49 | 0 | 0.0 | 0.0 | 0.00 | 0.09 | 0.06 | 72 | 1020.6 |
| 20260507030105 | 49 | 0 | 0.0 | 0.0 | 0.00 | 0.09 | 0.06 | 72 | 1020.5 |
| 20260507024557 | 50 | 0 | 0.0 | 0.0 | 0.00 | 0.17 | 0.06 | 69 | 1020.3 |
| 20260507023059 | 51 | 0 | 0.0 | 0.0 | 0.00 | 0.17 | 0.06 | 67 | 1020.0 |
| 20260507021559 | 53 | 0 | 0.0 | 0.0 | 0.00 | 0.17 | 0.06 | 63 | 1019.8 |
| 20260507020104 | 54 | 0 | 0.0 | 0.9 | 0.00 | 0.17 | 0.06 | 59 | 1019.8 |
| 20260507014608 | 55 | 0 | 0.0 | 0.9 | 0.00 | 0.17 | 0.06 | 58 | 1019.7 |
| 20260507013057 | 55 | 0 | 0.0 | 0.9 | 0.00 | 0.17 | 0.06 | 57 | 1019.6 |
| 20260507011604 | 56 | 0 | 0.0 | 0.9 | 0.00 | 0.17 | 0.06 | 56 | 1019.4 |
| 20260507010057 | 56 | 0 | 0.9 | 2.6 | 0.00 | 0.17 | 0.06 | 54 | 1019.2 |
| 20260507004559 | 57 | 13 | 0.9 | 3.5 | 0.00 | 0.17 | 0.06 | 51 | 1019.2 |
| 20260507003059 | 57 | 285 | 0.0 | 2.6 | 0.00 | 0.17 | 0.06 | 51 | 1019.1 |
| 20260507001615 | 57 | 266 | 0.9 | 3.5 | 0.00 | 0.17 | 0.06 | 51 | 1019.1 |
| 20260507000101 | 57 | 276 | 0.9 | 3.5 | 0.00 | 0.17 | 0.06 | 52 | 1019.0 |
| 20260506234606 | 57 | 28 | 0.9 | 4.3 | 0.00 | 0.17 | 0.06 | 51 | 1019.2 |
| 20260506233059 | 57 | 1 | 0.9 | 4.3 | 0.00 | 0.17 | 0.06 | 52 | 1019.4 |
| 20260506231558 | 57 | 60 | 1.7 | 5.2 | 0.00 | 0.17 | 0.06 | 51 | 1019.3 |
| 20260506230059 | 58 | 37 | 1.7 | 3.5 | 0.00 | 0.17 | 0.06 | 52 | 1019.0 |
| 20260506224559 | 58 | 50 | 1.7 | 5.2 | 0.00 | 0.17 | 0.06 | 50 | 1019.2 |
| 20260506223058 | 57 | 328 | 1.7 | 5.2 | 0.00 | 0.17 | 0.06 | 52 | 1019.2 |
| 20260506221557 | 58 | 23 | 0.9 | 4.3 | 0.00 | 0.17 | 0.06 | 53 | 1019.1 |
| 20260506220107 | 57 | 67 | 2.6 | 5.2 | 0.00 | 0.17 | 0.06 | 52 | 1019.1 |
| 20260506214557 | 58 | 34 | 1.7 | 5.2 | 0.00 | 0.17 | 0.06 | 52 | 1019.2 |
| 20260506213102 | 57 | 32 | 2.6 | 7.0 | 0.00 | 0.17 | 0.06 | 53 | 1019.2 |
| 20260506211557 | 58 | 286 | 2.6 | 5.2 | 0.00 | 0.17 | 0.06 | 51 | 1019.3 |
| 20260506210120 | 58 | 94 | 1.7 | 7.0 | 0.00 | 0.17 | 0.06 | 51 | 1019.3 |
| 20260506204558 | 58 | 299 | 1.7 | 4.3 | 0.00 | 0.17 | 0.06 | 52 | 1019.5 |
| 20260506203143 | 57 | 309 | 2.6 | 7.0 | 0.00 | 0.17 | 0.06 | 52 | 1019.7 |
| 20260506201604 | 58 | 300 | 0.0 | 5.2 | 0.00 | 0.17 | 0.06 | 51 | 1019.8 |
| 20260506200107 | 57 | 71 | 2.6 | 6.1 | 0.00 | 0.17 | 0.06 | 53 | 1019.8 |
| 20260506194559 | 58 | 41 | 1.7 | 7.0 | 0.00 | 0.17 | 0.06 | 54 | 1019.9 |
| 20260506193058 | 57 | 29 | 1.7 | 6.1 | 0.00 | 0.17 | 0.06 | 53 | 1020.0 |
| 20260506191605 | 58 | 63 | 1.7 | 5.2 | 0.00 | 0.17 | 0.06 | 52 | 1020.1 |
| 20260506190058 | 57 | 6 | 1.7 | 6.1 | 0.00 | 0.17 | 0.06 | 54 | 1020.2 |
| 20260506184603 | 57 | 54 | 1.7 | 8.7 | 0.00 | 0.17 | 0.06 | 54 | 1020.2 |
| 20260506183110 | 55 | 91 | 2.6 | 6.1 | 0.00 | 0.17 | 0.06 | 56 | 1020.4 |
| 20260506181601 | 55 | 25 | 2.6 | 6.1 | 0.00 | 0.17 | 0.06 | 56 | 1020.6 |